This demonstration page uses our WeatherBlox Daily Observations layout. Learn more.

Left ArrowRight Arrow

Hourly Observations for June 11, 2021

Temp ( °F °C ) Dew Point ( °F °C ) Humidity (%) Winds ( mph kmh ) Pressure ( in mb ) Visibility ( mi km ) Precip ( " mm )
12:51 am 00:51 Clear 76 24.4 27 -2.8 16 16 NW 8 13 29.75 1008 10 16 N/A
1:51 am 01:51 Clear 75 23.9 28 -2.2 18 18 WNW 10 17 29.74 1007 10 16 N/A
2:51 am 02:51 Clear 71 21.7 28 -2.2 20 20 NW 6 9 29.75 1007 10 16 N/A
3:51 am 03:51 Clear 73 22.8 29 -1.7 19 19 WSW 6 9 29.75 1007 10 16 N/A
4:51 am 04:51 Clear 68 20 27 -2.8 21 21 N N/A 29.76 1008 10 16 N/A
5:51 am 05:51 Sunny 66 18.9 25 -3.9 21 21 ESE 6 9 29.79 1009 10 16 N/A
6:51 am 06:51 Sunny 72 22.2 26 -3.3 18 18 SE 6 9 29.79 1009 10 16 N/A
7:51 am 07:51 Sunny 79 26.1 30 -1.1 17 17 N N/A 29.80 1009 10 16 N/A
8:51 am 08:51 Sunny 84 28.9 31 -0.6 15 15 VRB 5 7 29.80 1009 10 16 N/A
9:51 am 09:51 Sunny 88 31.1 32 undefined 13 13 W 6 9 29.78 1009 10 16 N/A
10:51 am 10:51 Sunny 93 33.9 32 undefined 11 11 W 9 15 29.76 1008 10 16 N/A
11:51 am 11:51 Sunny 96 35.6 28 -2.2 9 9 WSW 6 9 29.75 1007 10 16 N/A
12:51 pm 12:51 Sunny 100 37.8 28 -2.2 8 8 NW 8 13 29.72 1006 10 16 N/A
1:51 pm 13:51 Partly Cloudy 100 37.8 27 -2.8 7 7 WSW 8 13 29.69 1006 10 16 N/A
2:51 pm 14:51 Mostly Cloudy 102 38.9 26 -3.3 7 7 WNW 12 19 29.67 1005 10 16 N/A
3:51 pm 15:51 Mostly Cloudy 102 38.9 26 -3.3 7 7 WNW 13 20 29.65 1004 10 16 N/A
4:51 pm 16:51 Mostly Cloudy 102 38.9 24 -4.4 6 6 WNW 8 13 29.65 1004 10 16 N/A
5:51 pm 17:51 Mostly Cloudy 103 39.4 17 -8.3 4 4 NW 9 15 29.65 1004 10 16 N/A
6:51 pm 18:51 Mostly Cloudy 99 37.2 14 -10 4 4 NW 15 24 29.65 1004 10 16 N/A
7:51 pm 19:51 Partly Cloudy 93 33.9 10 -12.2 4 4 NW 9 15 29.67 1005 10 16 N/A
8:51 pm 20:51 Clear 86 30 7 -13.9 5 5 NW 9 15 29.69 1006 10 16 N/A
9:51 pm 21:51 Clear 83 28.3 7 -13.9 5 5 NW 10 17 29.71 1006 10 16 N/A
10:51 pm 22:51 Clear 78 25.6 8 -13.3 7 7 NW 8 13 29.72 1006 10 16 N/A
11:51 pm 23:51 Clear 81 27.2 9 -12.8 6 6 WNW 10 17 29.70 1006 10 16 N/A

Powered by AerisWeather